Regional Weather Roundup
Issued by NWS State College, PA

Home | Current Version | Previous Version | Text Only | Print | Product List | Glossary Off
Versions: 1 2 3 4 5 6 7 8 9 10 11 12 13 14 15 16 17 18 19 20 21 22 23 24 25 26 27 28 29 30 31 32 33 34 35 36 37 38 39 40 41 42 43 44 45 46 47 48 49 50

000
ASUS41 KCTP 301610
RWRCTP

REGIONAL WEATHER ROUNDUP
NATIONAL WEATHER SERVICE STATE COLLEGE PA
1200 PM EDT TUE AUG 30 2016

Note: "fair" indicates few or no clouds below 12,000 feet with no
significant weather and/or obstructions to visibility.

* = STATION THAT DOES NOT REPORT PRECIPITATION /E.G. RAIN...SNOW...ETC/
    THUNDER OR FOG.

PAZ002>004-007>009-013>016-020>023-029>032-301700-
WESTERN PENNSYLVANIA

CITY           SKY/WX    TMP DP  RH WIND       PRES   REMARKS
ERIE           SUNNY     79  60  52 CALM      30.17S
MEADVILLE      SUNNY     76  55  48 E6        30.20F
FRANKLIN*        N/A     75  57  53 E5        30.21S
NEW CASTLE     FAIR      78  59  51 MISG      30.20
BEAVER COUNTY  SUNNY     79  50  36 N3        30.20S
BUTLER*        NOT AVBL
PITTSBURGH INT MOSUNNY   80  51  36 VRB5      30.18F
PITTSBURGH     SUNNY     79  55  43 CALM      30.17F
INDIANA*       SUNNY     77  61  57 CALM      30.21F
LATROBE        SUNNY     77  63  61 MISG      30.19F
WASHINGTON CO* SUNNY     79  55  44 CALM      30.19S
$$

PAZ004>006-010>012-017>019-024>028-033>037-041-042-045-046-049>053-301700-
CENTRAL PENNSYLVANIA

CITY           SKY/WX    TMP DP  RH WIND       PRES   REMARKS
BRADFORD       SUNNY     74  57  55 VRB3      30.22F
DUBOIS         SUNNY     75  59  57 CALM      30.20F
CLEARFIELD     NOT AVBL
JOHNSTOWN      SUNNY     75  60  59 W5        30.22F
ALTOONA        MOSUNNY   78  62  57 CALM      30.21F
STATE COLLEGE  MOSUNNY   75  61  60 CALM      30.19F
WILLIAMSPORT   SUNNY     77  60  55 S3        30.16F
SELINSGROVE    SUNNY     79  62  56 CALM      30.17F
FT INDIANTOWN  SUNNY     80  59  49 CALM      30.17F
CAPITAL CITY   SUNNY     83  57  41 CALM      30.16F
HARRISBURG     MOSUNNY   81  62  52 CALM      30.15F
YORK           SUNNY     81  60  48 E5        30.16F
$$

PAZ038>040-043-044-047-048-054-055-060>062-067>071-301700-
EASTERN PENNSYLVANIA

CITY           SKY/WX    TMP DP  RH WIND       PRES   REMARKS
SCRANTON       SUNNY     77  60  55 W8        30.18F
MOUNT POCONO   MOSUNNY   72  58  61 S8        30.21F
ALLENTOWN      SUNNY     80  61  52 VRB3      30.16F
QUAKERTOWN*    PTSUNNY   82  63  51 SW6       30.17F
READING        SUNNY     81  62  52 VRB3      30.15F
LANCASTER      SUNNY     81  62  52 CALM      30.16F
COATESVILLE    MOSUNNY   81  63  54 VRB5      30.17F
POTTSTOWN      SUNNY     81  62  52 VRB5      30.17F
BLUE BELL      SUNNY     81  63  54 S3        30.14F
DOYLESTOWN     SUNNY     81  66  60 CALM      30.15F
WILLOW GROVE   NOT AVBL
NORTH PHILA    SUNNY     86  66  51 VRB6      30.15F
PHILADELPHIA   MOSUNNY   85  64  49 E6        30.13F
$$




USA.gov is the U.S. government's official web portal to all federal, state and local government web resources and services.